トリトン彗星

157P/Tritton (2003)

English version
Home page
Updated on May 23, 2004

---------------------------------------------------------------------

・ プロフィール

符号 157P/2003 T1
再発見日 2003年10月6日
再発見光度 12.4等
再発見者 Charles W. Juels (Fountain Hills, AZ), Paulo R. Holvorcem (Campinas, Brazil)

・ 写真集

・ 軌道要素

Epoch 2003 Oct. 8.0 TT = JDT 2452920.5
T 2003 Sept. 24.30774 TT                                MPC
q   1.4210982            (2000.0)            P               Q
n   0.15283281     Peri.  147.42329     +0.02866670     -0.99390149
a   3.4646416      Node   300.72966     +0.88853059     +0.07413640
e   0.5898282      Incl.    7.11572     +0.45792096     -0.08163107
P   6.45

・ 星図

・ 光度変化

        m1 =  13.0 + 5 logΔ +  20.0 log r  [  ,-2]  (              〜2003年 9月22日)
        m1 = 127.2 + 5 logΔ - 750   log r  [-2,15]  (2003年 9月22日〜2003年10月 9日)
        m1 = -12.5 + 5 logΔ + 150   log r  [15,50]  (2003年10月 9日〜2003年11月13日)
        m1 =   9.7 + 5 logΔ +  28.5 log r  [50,  ]  (2003年11月13日〜              )

---------------------------------------------------------------------

軌道要素はM.P.E.C. 2003-T37に掲載されたものです。
星図は StellaNavigator Ver.2.0 for Windows (アストロアーツ 編著 / アスキー出版局刊) で作成したものです。
光度グラフはComet for Windowsで作成したものです。

---------------------------------------------------------------------

Copyright(C) Seiichi Yoshida (comet@aerith.net). All rights reserved.